Location: Dover
(39.1580°N, 75.5250°W)
Time: 20:21:57
(UTC-04:00)

Daily predictions for brighter satellites

Satellite Brightness Start Highest point End
(mag) Time Altitude Azimuth Time Altitude Azimuth Time Altitude Azimuth
Cosmos 1680 Rocket 3.6 19:35:00 10° NNW 19:40:18 86° WSW 19:45:32 10° SSE
Meteor 2-14 Rocket 4.4 19:36:53 10° S 19:42:56 83° E 19:49:03 10° N
Cosmos 1937 Rocket 4.1 19:38:21 10° SSE 19:43:04 36° E 19:47:51 10° NE
Lacrosse 4 Rocket 1.8 19:39:24 10° S 19:43:12 40° ESE 19:47:00 10° NE
COSMO-SKYMED 1 4.2 19:39:43 10° N 19:43:47 40° WNW 19:47:50 10° SW
Cosmos 2298 Rocket 4.3 19:40:20 10° S 19:45:23 47° ESE 19:50:29 10° NNE
NOAA 12 4.3 19:42:03 10° SSE 19:47:22 83° WSW 19:52:42 10° NNW
Cosmos 1934 Rocket 4.4 19:42:30 10° SSE 19:48:05 37° E 19:53:37 10° NNE
SL-27 R/B 4.3 19:46:03 10° NNE 19:48:09 15° ENE 19:50:15 10° E
SJ-6B 2.6 19:47:19 10° SSE 19:51:02 76° ENE 19:54:47 10° N
Tiangong 1 1.8 19:48:54 10° WNW 19:51:42 39° N 19:54:27 10° ENE
Cosmos 1437 Rocket 3.1 19:49:43 10° SSE 19:53:30 44° E 19:57:21 10° NNE
ALOS 2.2 19:54:29 10° SSE 19:59:09 73° ENE 20:03:49 10° N
USA 186 3.2 19:59:44 12° ENE 19:59:44 12° ENE 20:00:27 10° NE
SeaSat 1 2.6 19:56:12 10° SSE 20:01:07 81° WSW 20:06:05 10° NNW
Cosmos 405 3.0 19:59:04 10° S 20:02:35 88° W 20:06:08 10° N
Lacrosse 5 2.5 19:58:18 10° S 20:02:49 33° ESE 20:07:19 10° ENE
Cosmos 1821 Rocket 4.0 19:59:30 10° S 20:05:51 69° E 20:12:10 10° NNE
Cosmos 1535 Rocket 4.5 20:06:21 10° S 20:12:32 76° E 20:18:52 10° N
FengYun 1-2 T 4.2 20:09:08 10° SSE 20:14:41 89° E 20:20:19 10° NNW
Cosmos 1844 Rocket 2.8 20:09:27 10° SSW 20:15:07 82° WNW 20:20:47 10° NNE
Resurs 01 Rocket 1.5 20:12:34 10° SSE 20:16:57 73° ENE 20:21:22 10° N
GP-B 4.4 20:16:20 18° ESE 20:17:41 21° ENE 20:20:59 10° NNE
Cosmos 1953 3.6 20:19:44 21° E 20:20:13 21° E 20:23:19 10° NE
Cosmos 2278 Rocket 2.4 20:16:21 10° S 20:21:43 46° ESE 20:27:08 10° NE
BREEZE-M DEB (TANK) 2.7 20:19:58 10° SW 20:22:35 71° SE 20:28:46 10° ENE
Cosmos 1812 Rocket 3.5 20:18:31 10° S 20:22:57 85° E 20:27:22 10° N
Cosmos 1605 Rocket 4.1 20:17:44 10° SSE 20:23:43 51° E 20:29:48 10° NNE
Cosmos 1833 Rocket 4.3 20:21:41 10° NNE 20:25:14 17° NE 20:26:46 15° ENE
CZ-2C R/B 0.8 20:23:32 10° N 20:25:16 51° ENE 20:25:16 51° ENE
Spot 1 4.5 20:24:54 14° SE 20:28:36 49° ENE 20:33:13 10° N
Meteor 1-24 Rocket 3.6 20:27:10 10° N 20:32:39 86° E 20:38:18 10° S
Cosmos 1378 3.4 20:28:56 10° NNW 20:32:41 68° W 20:36:24 10° S
H-2A R/B 3.1 20:29:29 10° S 20:33:19 69° W 20:37:14 10° NNW
Cosmos 2150 Rocket 4.3 20:29:10 10° SSW 20:34:17 69° WNW 20:39:26 10° NNE
Spot 2 Rocket 3.6 20:30:41 10° S 20:35:46 79° WSW 20:40:55 10° NNW
FENGYUN 3A 4.5 20:31:29 10° S 20:36:45 53° W 20:42:03 10° NNW
Cosmos 2123 Rocket 3.9 20:30:53 10° N 20:37:14 76° E 20:43:30 10° SSE
SAR-Lupe-4 3.5 20:35:52 25° SSE 20:37:48 62° ENE 20:41:21 10° N
CZ-3 Stage 3 4.0 19:50:42 10° WSW 20:39:50 60° S 20:45:17 25° ESE
USA 215 3.2 20:35:54 10° NE 20:42:27 75° SE 20:48:58 10° SW
Delta 2 Rocket 3.7 20:38:35 10° W 20:43:00 50° S 20:44:17 36° SE
RESURS DK-1 2.3 20:41:10 10° NNW 20:45:17 62° ENE 20:46:35 39° SE
Cosmos 1076 Rocket 3.9 20:43:05 10° N 20:47:04 38° ENE 20:47:14 38° E
Cosmos 1766 3.8 20:46:16 10° SSW 20:50:05 57° W 20:53:55 10° N
Cosmos 2082 Rocket 3.1 20:47:39 10° N 20:52:36 29° ENE 20:53:24 28° ENE
Envisat 3.1 20:51:33 33° SE 20:53:37 55° ENE 20:58:35 10° N
SAR-Lupe-1 4.0 20:56:02 43° S 20:57:06 84° WSW 21:00:42 10° NNW
Cosmos 1125 Rocket 3.6 20:53:46 10° S 20:58:44 48° ESE 21:03:44 10° NNE
Cosmos 1048 Rocket 4.5 20:59:56 10° N 21:04:42 38° ENE 21:04:42 38° ENE
SJ-11-01 4.2 21:03:47 49° SE 21:04:52 66° ENE 21:09:35 10° N
Cosmos 1544 3.1 21:04:09 35° SSW 21:05:34 78° W 21:09:14 10° N
Meteor 1-4 Rocket 4.4 21:08:19 20° NNE 21:08:19 20° NNE 21:09:28 10° NNE
Helios 1A 3.3 21:04:20 24° S 21:06:41 63° W 21:10:50 10° NNW
Meteor 1-21 Rocket 4.2 21:03:16 10° N 21:09:02 65° E 21:10:58 42° SE
Helios 1B rocket 3.0 21:06:14 10° N 21:10:18 58° WNW 21:14:21 10° SSW
USA 267 4.2 21:11:56 28° ENE 21:14:11 35° NNE 21:19:59 10° NW
Cosmos 1818 3.8 21:10:18 10° NNW 21:15:36 50° NE 21:15:57 49° ENE
CZ-3B DEB 3.5 21:06:00 10° WSW 21:16:25 51° NW 21:20:48 13° NNE
Cosmos 1447 Rocket 4.3 21:11:09 10° N 21:17:20 87° E 21:20:33 30° S
Lacrosse 4 Rocket 4.2 21:19:18 10° W 21:22:04 17° NW 21:24:50 10° N
ERS-1 Rocket 3.1 21:23:35 55° NE 21:23:35 55° NE 21:28:05 10° N
Cosmos 2344 4.3 21:15:48 10° SW 21:23:16 54° NW 21:31:46 10° NNE
SL-27 R/B 4.2 21:20:17 10° NW 21:23:27 30° WSW 21:24:08 28° SW
Meteor 1-29 4.3 21:20:43 10° N 21:24:00 40° WNW 21:25:08 30° WSW
Cosmos 1459 Rocket 3.9 21:24:00 54° SE 21:25:04 62° E 21:31:12 10° NNE
Cosmos 2173 Rocket 3.9 21:25:16 58° ESE 21:25:52 61° E 21:32:00 10° NNE
Tiangong 1 3.6 21:24:49 10° WNW 21:25:53 20° WNW 21:25:53 20° WNW
Cosmos 2098 Rocket 4.5 21:22:57 10° SSW 21:29:46 75° W 21:37:24 10° N
Cosmos 1269 Rocket 4.0 21:28:38 10° NNW 21:33:32 70° NNE 21:33:32 70° NNE
Cosmos 1674 4.4 21:32:29 10° N 21:34:15 26° NNW 21:34:15 26° NNW
Cosmos 1408 Rocket 4.1 21:32:37 10° N 21:36:11 55° NNW 21:36:11 55° NNW
Lacrosse 5 3.0 21:40:54 10° WSW 21:45:41 41° NW 21:47:58 26° NNE
SPOT 5 4.1 21:49:18 36° NNE 21:49:18 36° NNE 21:52:41 10° N
Cosmos 1939 Rocket 4.4 21:50:45 36° WNW 21:50:45 36° WNW 21:54:01 10° NNW
Cosmos 1953 4.5 21:55:18 22° WSW 21:56:30 25° WNW 21:59:54 10° NNW
Cosmos 2016 Rocket 4.4 21:58:20 53° NNE 21:58:20 53° NNE 22:02:58 10° N
Cosmos 2278 Rocket 4.3 22:01:23 10° WSW 22:06:00 25° NW 22:10:39 10° N
Cosmos 2100 Rocket 4.5 22:04:49 37° SW 22:07:07 57° W 22:13:23 10° N
Cosmos 1833 Rocket 3.3 22:04:09 10° NNW 22:08:29 53° NW 22:08:29 53° NW
H-2A R/B 3.9 22:17:09 23° N 22:17:09 23° N 22:19:12 10° N
H-2A R/B (2) 4.5 22:14:25 10° SW 22:15:06 14° SW 22:15:06 14° SW
Lacrosse 5 rocket 4.4 22:19:23 10° NNW 22:19:28 11° NNW 22:19:28 11° NNW
Cosmos 2082 Rocket 3.7 22:31:30 10° NW 22:35:16 33° WNW 22:35:16 33° WNW
USA 267 4.2 22:59:17 42° NW 22:59:17 42° NW 23:03:22 10° NW
